This demonstration page uses our WeatherBlox Daily Observations layout. Learn more.

Left ArrowRight Arrow

39.51506, -84.39828

Hourly Observations for February 28, 2020

Temp ( °F °C ) Dew Point ( °F °C ) Humidity (%) Winds ( mph kmh ) Pressure ( in mb ) Visibility ( mi km ) Precip ( " mm )
12:15 am 00:15 Cloudy with Light Snow 31 -0.6 29 -1.8 92 92 WSW 7 11 30.08 1019 7 11.26538 0 0
12:35 am 00:35 Cloudy with Light Snow 31 -0.6 29 -1.7 92 92 WSW 6 9 30.07 1018 4 6.43736 0 0
12:55 am 00:55 Cloudy with Light Snow 31 -0.7 29 -1.6 94 94 Calm 30.07 1018 5 8.0467 0 0
1:15 am 01:15 Cloudy with Light Snow 31 -0.7 29 -1.6 94 94 Calm 30.07 1018 3.5 5.63269 0 0
1:35 am 01:35 Cloudy with Light Snow 31 -0.6 29 -1.7 92 92 WSW 3 6 30.07 1018 10 16.0934 0 0
1:55 am 01:55 Cloudy with Light Snow 31 -0.6 29 -1.5 94 94 Calm 30.06 1018 3 4.82802 0 0
2:15 am 02:15 Cloudy with Light Snow 31 -0.5 29 -1.6 92 92 W 7 11 30.06 1018 3.5 5.63269 0 0
2:35 am 02:35 Cloudy with Light Snow 31 -0.5 29 -1.6 92 92 WNW 5 7 30.06 1018 3.5 5.63269 0 0
2:55 am 02:55 Cloudy 31 -0.8 27 -2.8 86 86 NNW 8 13 30.06 1018 10 16.0934 0 0
3:15 am 03:15 Cloudy 29 -1.6 25 -4 84 84 NW 7 11 30.05 1018 10 16.0934 0 0
3:35 am 03:35 Partly Cloudy 27 -2.6 22 -5.3 82 82 NW 6 9 30.05 1018 10 16.0934 0 0
3:55 am 03:55 Clear 26 -3.4 22 -5.7 84 84 W 3 6 30.05 1018 10 16.0934 0 0
4:15 am 04:15 Clear 25 -3.8 21 -6.1 84 84 WNW 5 7 30.07 1018 10 16.0934 0 0
4:35 am 04:35 Clear 24 -4.2 21 -6.3 85 85 WNW 5 7 30.06 1018 10 16.0934 0 0
4:55 am 04:55 Clear 24 -4.6 19 -7 84 84 WNW 5 7 30.06 1018 10 16.0934 0 0
5:15 am 05:15 Clear 23 -5 19 -7.5 83 83 W 3 6 30.07 1018 10 16.0934 0 0
5:35 am 05:35 Clear 21 -6.3 17 -8.1 87 87 WSW 3 6 30.07 1018 10 16.0934 0 0
5:55 am 05:55 Clear 20 -6.4 19 -7.4 93 93 WSW 5 7 30.07 1018 10 16.0934 0 0
6:15 am 06:15 Clear 16 -8.8 14 -9.8 93 93 WSW 5 7 30.08 1019 10 16.0934 0 0
6:35 am 06:35 Clear 17 -8.6 15 -9.2 95 95 Calm 30.08 1019 7 11.26538 0 0
6:55 am 06:55 Clear with Mist and Fog 17 -8.3 16 -9 95 95 Calm 30.08 1019 4 6.43736 0 0
7:15 am 07:15 Sunny with Mist and Fog 17 -8.6 15 -9.4 94 94 Calm 30.09 1019 3 4.82802 0 0
7:35 am 07:35 Sunny with Mist and Fog 19 -7.5 17 -8.2 95 95 Calm 30.09 1019 7 11.26538 0 0
7:55 am 07:55 Sunny with Mist and Fog 19 -7.4 17 -8.2 94 94 Calm 30.09 1019 7 11.26538 0 0
8:15 am 08:15 Sunny 19 -7.5 17 -8.4 93 93 Calm 30.09 1019 7 11.26538 0 0
8:35 am 08:35 Sunny 22 -5.4 17 -8.1 82 82 W 8 13 30.09 1019 10 16.0934 0 0
8:55 am 08:55 Mostly Cloudy 23 -4.8 17 -8.5 76 76 W 9 15 30.09 1019 10 16.0934 0 0
9:15 am 09:15 Partly Cloudy 24 -4.5 16 -8.9 72 72 W 9 15 30.09 1019 10 16.0934 0 0
9:35 am 09:35 Sunny 25 -4 16 -9 69 69 W 10 17 30.1 1019 10 16.0934 0 0
9:55 am 09:55 Sunny 26 -3.6 16 -8.9 67 67 W 9 15 30.1 1019 10 16.0934 0 0
10:15 am 10:15 Sunny 26 -3.2 15 -9.2 64 64 W 13 20 30.09 1019 10 16.0934 0 0
10:35 am 10:35 Sunny 27 -2.7 16 -8.7 64 64 W 13 20 30.09 1019 10 16.0934 0 0
10:55 am 10:55 Sunny 28 -2.4 16 -9 61 61 W 15 24 30.09 1019 10 16.0934 0 0
11:15 am 11:15 Cloudy 28 -2.1 17 -8.2 63 63 W 12 19 30.09 1019 10 16.0934 0 0
11:35 am 11:35 Mostly Cloudy 29 -1.4 18 -8 61 61 W 14 22 30.09 1019 10 16.0934 0 0
11:55 am 11:55 Partly Cloudy 30 -1.2 18 -7.8 61 61 W 12 19 30.09 1019 10 16.0934 0 0
12:15 pm 12:15 Mostly Cloudy 30 -1.2 18 -7.7 62 62 WNW 13 20 30.08 1019 10 16.0934 0 0
12:35 pm 12:35 Partly Cloudy 31 -0.6 19 -7.1 62 62 WSW 15 24 30.08 1019 10 16.0934 0 0
12:55 pm 12:55 Mostly Cloudy 31 -0.5 20 -6.7 63 63 W 15 24 30.07 1018 10 16.0934 0 0
1:15 pm 13:15 Cloudy 31 -0.5 20 -6.9 62 62 W 15 24 30.07 1018 10 16.0934 0 0
1:35 pm 13:35 Cloudy 31 -0.3 20 -6.6 63 63 W 14 22 30.06 1018 10 16.0934 0 0
1:55 pm 13:55 Cloudy 31 -0.3 20 -6.5 63 63 WNW 15 24 30.06 1018 10 16.0934 0 0
2:15 pm 14:15 Cloudy 32 0 21 -6.2 63 63 W 15 24 30.05 1017 10 16.0934 0 0
2:35 pm 14:35 Cloudy 32 -0.2 21 -6.2 64 64 W 15 24 30.05 1017 10 16.0934 0 0
2:55 pm 14:55 Cloudy 33 0.3 21 -6.2 62 62 WNW 10 17 30.04 1017 10 16.0934 0 0
3:15 pm 15:15 Cloudy 32 0.1 21 -6.2 63 63 W 10 17 30.04 1017 10 16.0934 0 0
3:35 pm 15:35 Cloudy 33 0.4 22 -5.6 64 64 W 16 26 30.04 1017 10 16.0934 0 0
3:55 pm 15:55 Cloudy 33 0.3 22 -5.5 65 65 W 16 26 30.04 1017 10 16.0934 0 0
4:15 pm 16:15 Cloudy 32 0.1 22 -5.4 67 67 WNW 9 15 30.04 1017 10 16.0934 0 0
4:35 pm 16:35 Cloudy 32 -0.2 23 -5 70 70 WNW 12 19 30.05 1017 10 16.0934 0 0
4:55 pm 16:55 Cloudy with Light Snow 31 -0.5 24 -4.5 75 75 WNW 8 13 30.06 1018 10 16.0934 0 0
5:15 pm 17:15 Cloudy with Light Snow 31 -0.8 25 -4 79 79 WNW 7 11 30.07 1018 5 8.0467 0 0
5:35 pm 17:35 Cloudy with Light Snow 30 -1.2 25 -3.9 82 82 WNW 9 15 30.07 1018 2 3.21868 0 0
5:55 pm 17:55 Cloudy with Light Snow 29 -1.6 26 -3.3 88 88 W 8 13 30.08 1019 2 3.21868 0 0
6:15 pm 18:15 Cloudy with Light Snow 29 -1.6 26 -3.2 89 89 WNW 7 11 30.08 1019 2 3.21868 0 0
6:35 pm 18:35 Cloudy with Light Snow 29 -1.8 26 -3.5 88 88 W 8 13 30.09 1019 2 3.21868 0 0
6:55 pm 18:55 Cloudy with Light Snow 28 -2 25 -3.8 88 88 WNW 7 11 30.09 1019 3.5 5.63269 0 0
7:15 pm 19:15 Cloudy with Light Snow 28 -2.1 26 -3.6 90 90 NW 5 7 30.09 1019 4 6.43736 0 0
7:35 pm 19:35 Cloudy with Light Snow 28 -2.2 25 -3.9 88 88 NNW 8 13 30.1 1019 7 11.26538 0 0
7:55 pm 19:55 Cloudy with Light Snow 28 -2.3 24 -4.4 86 86 NW 7 11 30.11 1020 10 16.0934 0 0
8:15 pm 20:15 Cloudy 28 -2.4 23 -4.9 83 83 NW 10 17 30.11 1020 10 16.0934 0 0
8:35 pm 20:35 Cloudy 27 -2.6 22 -5.3 82 82 NW 8 13 30.11 1020 10 16.0934 0 0
8:55 pm 20:55 Cloudy with Light Snow 27 -2.7 23 -5.2 83 83 WNW 8 13 30.11 1020 5 8.0467 0 0
9:15 pm 21:15 Cloudy 27 -2.8 22 -5.3 83 83 NNW 7 11 30.12 1020 10 16.0934 0 0
9:55 pm 21:55 Cloudy 27 -2.9 20 -6.4 77 77 NW 6 9 30.13 1020 10 16.0934 0 0
10:15 pm 22:15 Cloudy 27 -3 20 -6.7 76 76 NW 15 24 30.14 1021 10 16.0934 0 0
10:35 pm 22:35 Cloudy 26 -3.3 19 -7 76 76 N 8 13 30.15 1021 10 16.0934 0 0
10:55 pm 22:55 Cloudy with Light Snow 26 -3.4 19 -7.5 74 74 NW 10 17 30.15 1021 10 16.0934 0 0
11:15 pm 23:15 Cloudy with Light Snow 25 -3.7 17 -8.4 70 70 WNW 10 17 30.16 1021 10 16.0934 0 0
11:35 pm 23:35 Clear 24 -4.4 15 -9.7 67 67 NW 9 15 30.17 1022 10 16.0934 0 0
11:55 pm 23:55 Clear 22 -5.5 13 -10.3 69 69 NW 6 9 30.17 1022 10 16.0934 0 0

Powered by AerisWeather